INTELSAT 905 (IS-905)

Last updated on Sun Jun 21 2026 00:03:03 GMT+0000 (Coordinated Universal Time)

1 27438U 02027A 26171.36475514 .00000087 00000+0 00000+0 0 9990 2 27438 6.7625 69.7638 0003977 23.7456 169.1624 1.00272920 51394
UTC large
Height (km)
Speed (km/s)
/
Latitude / Longitude
Inclination (degrees)
Orbital Period (minutes)
Azimuth
Elevation
Range (km)
Doppler Factor

Next 0 passes for location: London (51.5072 / 0.1276)

No passes found over London.
INTELSAT 905 (IS-905)